Notices

What's New in latest Release from April 7th, 2021:

- Updated Glossary, including Speed of Maximum Gust, and Total Hourly Precipitation

- Updated national and regional climate services offices contacts and prices information

- Addition of station inventory lists for 1981-2010, 1971-2000, and 1961-1990 Normals.

If you haven't already, please take our survey and provide feedback about our website: https://eccc.sondage-survey.ca/f/LanguageSelection.aspx?s=442ca660-fcf1-47c0-95a9-59707d6fd709

Hourly Data Report for August 20, 2017

TORONTO CITY
ONTARIO

43°40'00.000" N
79°24'00.000" W
112.50 m
6158355
71508
XTO

Download Data

Hourly Data (August 2017)
Hourly Data Report for August 20, 2017
TIME
LST
Temp Definition
°C
Dew Point Definition
°C
Rel Hum Definition
%
Precip. Amount Definition
mm

Wind Dir Definition
10's deg

Wind Spd Definition
km/h
Visibility Definition
km
Stn Press Definition
kPa
Hmdx Definition


Wind Chill Definition


Weather Definition


00:00 17.8 12.8 72 0.0 LegendMM LegendMM   100.13     LegendNANA
01:00 17.1 12.6 75 0.0 LegendMM LegendMM   100.15     LegendNANA
02:00 16.5 12.6 78 0.0 LegendMM LegendMM   100.18     LegendNANA
03:00 16.5 13.1 81 0.0 LegendMM LegendMM   100.21     LegendNANA
04:00 16.4 13.2 82 0.0 LegendMM LegendMM   100.23     LegendNANA
05:00 16.6 13.5 82 0.0 LegendMM LegendMM   100.27     LegendNANA
06:00 16.8 13.6 82 0.0 LegendMM LegendMM   100.33     LegendNANA
07:00 18.7 13.8 73 0.0 LegendMM LegendMM   100.36     LegendNANA
08:00 20.2 14.7 70 0.0 LegendMM LegendMM   100.37     LegendNANA
09:00 22.3 15.4 65 0.0 LegendMM LegendMM   100.41 27   LegendNANA
10:00 24.2 15.4 58 0.0 LegendMM LegendMM   100.47 28   LegendNANA
11:00 23.7 15.4 60 0.0 LegendMM LegendMM   100.46 28   LegendNANA
12:00 25.6 15.5 54 0.0 LegendMM LegendMM   100.45 30   LegendNANA
13:00 25.6 16.7 58 0.0 LegendMM LegendMM   100.45 31   LegendNANA
14:00 25.9 16.4 56 0.0 LegendMM LegendMM   100.44 31   LegendNANA
15:00 28.0 15.7 47 0.0 LegendMM LegendMM   100.39 32   LegendNANA
16:00 27.3 14.5 46 0.0 LegendMM LegendMM   100.35 31   LegendNANA
17:00 26.8 14.3 46 0.0 LegendMM LegendMM   100.35 30   LegendNANA
18:00 26.3 14.6 49 0.0 LegendMM LegendMM   100.37 30   LegendNANA
19:00 25.6 13.8 48 0.0 LegendMM LegendMM   100.41 29   LegendNANA
20:00 23.8 15.3 59 0.0 LegendMM LegendMM   100.48 28   LegendNANA
21:00 23.1 16.2 65 0.0 LegendMM LegendMM   100.54 28   LegendNANA
22:00 22.3 16.1 68 0.0 LegendMM LegendMM   100.54 27   LegendNANA
23:00 21.3 16.1 72 0.0 LegendMM LegendMM   100.53 26   LegendNANA

Notes on Data Quality.

Legend

  • E = Estimated
  • M = Missing
  • NA = Not Available*
  • [empty] = Indicates an unobserved value
Date modified: